Regional Weather Roundup
Issued by NWS

Home | Current Version | Previous Version | Graphics & Text | Print | Product List | Glossary On
Versions: 1 2 3 4 5 6 7 8 9 10 11 12 13 14 15 16 17 18 19 20 21 22 23 24 25 26 27 28 29 30 31 32 33 34 35 36 37 38 39 40 41 42 43 44 45 46 47 48 49 50
000
ASUS43 KMKX 300611
RWRWI

WISCONSIN REGIONAL WEATHER ROUNDUP
NATIONAL WEATHER SERVICE MILWAUKEE/SULLIVAN WI
100 AM CDT SUN AUG 30 2015

NOTE: "FAIR" INDICATES FEW OR NO CLOUDS BELOW 12,000 FEET WITH NO
SIGNIFICANT WEATHER AND/OR OBSTRUCTIONS TO VISIBILITY.

WIZ001-002-006>008-014>016-023>028-300700-
NORTHWEST WISCONSIN

CITY           SKY/WX    TMP DP  RH WIND       PRES   REMARKS
SUPERIOR ARPT  FAIR      62  61  96 SW5       29.97S
6HR MIN TEMP:  62; 6HR MAX TEMP:  73;

ASHLAND        FAIR      59  59 100 S3        30.00R FOG
6HR MIN TEMP:  59; 6HR MAX TEMP:  72;

HAYWARD        FAIR      62  60  93 S5        30.02S
6HR MIN TEMP:  62; 6HR MAX TEMP:  71;

SIREN          FAIR      62  61  96 S5        30.01F
6HR MIN TEMP:  61; 6HR MAX TEMP:  71;

CUMBERLAND       N/A     57  55  94 S5        30.03S FOG
RICE LAKE      FAIR      59  57  95 S3        30.05R FOG
6HR MIN TEMP:  58; 6HR MAX TEMP:  70;

CHETEK         FAIR     N/A N/A N/A E5        30.04S HAZE
LADYSMITH      FAIR      60  59  96 S5        30.06S
6HR MIN TEMP:  60; 6HR MAX TEMP:  69;

EAU CLAIRE     FAIR      61  58  90 S5        30.03S
6HR MIN TEMP:  61; 6HR MAX TEMP:  71;

MENOMONIE      FAIR      59  58  98 CALM      30.04R FOG
6HR MIN TEMP:  59; 6HR MAX TEMP:  69;

NEW RICHMOND   FAIR      62  61  97 S5        30.02F
6HR MIN TEMP:  62; 6HR MAX TEMP:  68;

OSCEOLA        FAIR      62  62 100 SE3       30.04S
6HR MIN TEMP:  60; 6HR MAX TEMP:  69;

$$

WIZ003>005-009-010-017-018-300700-
NORTH CENTRAL WISCONSIN

CITY           SKY/WX    TMP DP  RH WIND       PRES   REMARKS
MANITOWISH WTR FAIR      58  58 100 SW5       30.05S FOG
6HR MIN TEMP:  56; 6HR MAX TEMP:  69;

ARBOR VITAE    FAIR      60  59  96 SW5       30.06S
6HR MIN TEMP:  60; 6HR MAX TEMP:  72;

WOODRUFF       FAIR      60  59  96 SW5       30.06S
6HR MIN TEMP:  60; 6HR MAX TEMP:  72;

RHINELANDER    FAIR      60  58  92 SW5       30.07S FOG
6HR MIN TEMP:  59; 6HR MAX TEMP:  69;

EAGLE RIVER    FAIR      58  58 100 SW5       30.05S FOG
6HR MIN TEMP:  58; 6HR MAX TEMP:  68;

LAND O LAKES   MOCLDY    60  60  99 S3        30.06S FOG
6HR MIN TEMP:  56; 6HR MAX TEMP:  71;

PHILLIPS       CLOUDY    58  58 100 S5        30.05R
6HR MIN TEMP:  58; 6HR MAX TEMP:  70;

TOMAHAWK       FOG       55  54  97 CALM      30.07S VSB 3/4
6HR MIN TEMP:  55; 6HR MAX TEMP:  66;

MEDFORD        MOCLDY    55  55 100 S3        30.06S FOG
6HR MIN TEMP:  55; 6HR MAX TEMP:  65;

MERRILL        FOG       51  51 100 CALM      30.07S VSB 3/4
6HR MIN TEMP:  51; 6HR MAX TEMP:  67;

$$

WIZ029-030-035-036-043>047-300700-
CENTRAL WISCONSIN

CITY           SKY/WX    TMP DP  RH WIND       PRES   REMARKS
WAUSAU         FAIR      55  54  96 CALM      30.05S FOG
6HR MIN TEMP:  55; 6HR MAX TEMP:  66;

MOSINEE          N/A     55  55 100 CALM      30.07S FOG
MARSHFIELD     FOG       56  54  93 CALM      30.06S VSB 1/4
6HR MIN TEMP:  56; 6HR MAX TEMP:  66;

STEVENS POINT  CLOUDY    55  54  98 CALM      30.07S
6HR MIN TEMP:  54; 6HR MAX TEMP:  63;

WAUPACA        FOG       57  56  97 CALM      30.06R VSB 1/2
6HR MIN TEMP:  57; 6HR MAX TEMP:  68; 6HR PCP:  0.05;

WAUTOMA        FOG       58  58 100 CALM      30.06S VSB<1/4
6HR MIN TEMP:  58; 6HR MAX TEMP:  68;

WISC RAPIDS    CLOUDY    61  59  93 CALM      30.07S
6HR MIN TEMP:  61; 6HR MAX TEMP:  67; 6HR PCP: TRACE;

CAMP DOUGLAS   CLOUDY    65  65 100 CALM      30.05S
6HR MIN TEMP:  64; 6HR MAX TEMP:  68;

$$

WIZ011>013-019>022-031-037>040-048>050-300700-
NORTHEAST WISCONSIN

CITY           SKY/WX    TMP DP  RH WIND       PRES   REMARKS
ANTIGO         FOG       52  52 100 CALM      30.08R VSB 1/4
SHAWANO        FOG       58  56  95 CALM      30.06S VSB<1/4
6HR MIN TEMP:  57; 6HR MAX TEMP:  68;

OCONTO         CLOUDY    54  54 100 CALM      30.05S VSB<1/4
6HR MIN TEMP:  54; 6HR MAX TEMP:  67;

STURGEON BAY   FAIR      59  55  88 S5        30.07F
6HR MIN TEMP:  59; 6HR MAX TEMP:  64;

GREEN BAY      FOG       56  55  97 CALM      30.06R VSB 1/4
6HR MIN TEMP:  56; 6HR MAX TEMP:  68;

MANITOWOC      FOG       56  55  97 MISG      30.06S VSB 1/4
6HR MIN TEMP:  55; 6HR MAX TEMP:  63;

APPLETON       MOCLDY    59  59 100 NW5       30.04S FOG
CLINTONVILLE   FOG       54  52  94 CALM      30.06R VSB<1/4
OSHKOSH        FAIR      63  60  90 SW3       30.04S FOG
6HR MIN TEMP:  61; 6HR MAX TEMP:  69;

$$

WIZ032>034-041-042-053>061-300700-
SOUTHWEST WISCONSIN

CITY           SKY/WX    TMP DP  RH WIND       PRES   REMARKS
LA CROSSE      FAIR      61  60  97 SE3       30.05S
6HR MIN TEMP:  61; 6HR MAX TEMP:  70;

SPARTA         CLOUDY    64  57  78 CALM      30.07S
6HR MIN TEMP:  64; 6HR MAX TEMP:  69;

VIROQUA          N/A     64  61  92 CALM      30.07F
6HR MIN TEMP:  63; 6HR MAX TEMP:  67;

BOSCOBEL       CLOUDY    65  63  93 CALM      30.06S
6HR MIN TEMP:  65; 6HR MAX TEMP:  71;

PRAIRIE DU CHI CLOUDY    65  62  91 CALM      30.05F
6HR MIN TEMP:  65; 6HR MAX TEMP:  69;

PLATTEVILLE    CLOUDY    65  64  96 CALM      30.06S
6HR MIN TEMP:  65; 6HR MAX TEMP:  69;

$$

WIZ056-057-062-063-064-067-068-300700-
SOUTH CENTRAL WISCONSIN

CITY           SKY/WX    TMP DP  RH WIND       PRES   REMARKS
REEDSBURG      CLOUDY    63  62  98 CALM      30.05F
6HR MIN TEMP:  63; 6HR MAX TEMP:  67;

BARABOO/DELLS  CLOUDY    63  60  92 CALM      30.06S
6HR MIN TEMP:  63; 6HR MAX TEMP:  67;

LONE ROCK      CLOUDY    65  63  93 CALM      30.06S
6HR MIN TEMP:  65; 6HR MAX TEMP:  69;

MINERAL POINT  CLOUDY    66  61  82 CALM      30.07S
MADISON        CLOUDY    64  62  93 CALM      30.05S FOG
6HR MIN TEMP:  64; 6HR MAX TEMP:  67;

MIDDLETON      CLOUDY    65  65  98 CALM      30.06S
6HR MIN TEMP:  65; 6HR MAX TEMP:  68;

WATERTOWN      CLOUDY    63  63 100 CALM      30.05S
6HR MIN TEMP:  63; 6HR MAX TEMP:  65;

MONROE         CLOUDY    63  63 100 CALM      30.06R
JANESVILLE     CLOUDY    64  63  94 CALM      30.05R
$$

WIZ051-052-058>065-066-070>072-300700-
SOUTHEAST WISCONSIN

CITY           SKY/WX    TMP DP  RH WIND       PRES   REMARKS
MILWAUKEE      FOG       62  61  96 N5        30.04S VSB 1/4
6HR MIN TEMP:  62; 6HR MAX TEMP:  63; 6HR PCP:  0.01;

WAUKESHA       CLOUDY    59  59 100 CALM      30.06S FOG
MILWAUKEE/TIMM CLOUDY    61  59  94 CALM      30.05S FOG
RACINE         FOG       63  61  93 N5        30.05S VSB 1/2
6HR MIN TEMP:  61; 6HR MAX TEMP:  63; 6HR PCP:  0.01;

BURLINGTON     CLOUDY    61  61  99 CALM      30.05S FOG
6HR MIN TEMP:  61; 6HR MAX TEMP:  62;

KENOSHA        FOG       63  62  97 VRB3      30.04S VSB 1/2
6HR MIN TEMP:  63; 6HR MAX TEMP:  65;

FOND DU LAC    CLOUDY    64  62  93 CALM      30.05S
6HR MIN TEMP:  64; 6HR MAX TEMP:  68;

SHEBOYGAN      CLOUDY    61  60  97 CALM      30.05S FOG
6HR MIN TEMP:  61; 6HR MAX TEMP:  65;

WEST BEND      CLOUDY    61  59  94 CALM      30.05S FOG
JUNEAU         CLOUDY    62  61  99 CALM      30.07S FOG
6HR MIN TEMP:  62; 6HR MAX TEMP:  66; 6HR PCP:  0.01;

$$

LSZ147-162-300700-
LAKE SUPERIOR

STATION/POSITION TIME  TEMP    WIND        PRES    WAVE
                       AIR SEA DIR/SP/G            HT/PER
                 (UTC) (F)     (DEG/KT/KT) (MB)    (FT/S)
W MID LAKE BUOY  0550   59 54  200/ 10/ 12 1014.6F   1
DEVILS ISLAND    0600   68     200/  9/ 12 1014.5F
PORT WING        0500   63      CALM  /  1 1015.2R
SAXON HARBOR     0540   65     200/  2/  7 1015.2R
$$

LMZ867-665-643>646-300700-
LAKE MICHIGAN

STATION/POSITION TIME  TEMP    WIND        PRES    WAVE
                       AIR SEA DIR/SP/G            HT/PER


USA.gov is the U.S. government's official web portal to all federal, state and local government web resources and services.